Hourly Data Report for October 09, 2014

All times are specified in Local Standard Time (LST). Add 1 hour to adjust for Daylight Saving Time where and when it is observed.

GJOA HAVEN A
NUNAVUT

68°38'08.000" N
95°51'01.000" W
46.90 m
2302337
71597
YHK

Download Data

Hourly Data (October 2014)
Hourly Data Report for October 9, 2014
Temp Definition
°C
Dew Point Temp Definition
°C
Rel Hum Definition
%
Wind Dir Definition
10's deg

Wind Spd Definition
km/h
Visibility Definition
km
Stn Press Definition
kPa
Hmdx Definition


Wind Chill Definition


Weather Definition


TIME
00:00 Legend Double Dagger -5.1 -5.2 99 12 9 0.6 102.19   -9 Freezing Fog
01:00 Legend Double Dagger -5.1 -5.2 99 10 9 0.6 102.17   -9 Freezing Fog
02:00 Legend Double Dagger -5.1 -5.2 99 11 5 1.2 102.16   -7 Snow
03:00 Legend Double Dagger -5.2 -5.5 98 10 5 2.4 102.16   -7 Fog
04:00 Legend Double Dagger -4.9 -5.1 99 LegendMM 4 0.6 102.16   -7 Freezing Fog
05:00 Legend Double Dagger -4.8 -4.9 99 LegendMM 4 1.2 102.11   -7 Fog
06:00 Legend Double Dagger -4.7 -4.8 99   0 12.9 102.11     LegendNANA
07:00 Legend Double Dagger -4.5 -4.6 99   0 12.9 102.09     LegendNANA
08:00 Legend Double Dagger -4.3 -4.4 99 3 8 16.1 102.06   -8 LegendNANA
09:00 Legend Double Dagger -4.1 -4.2 99 5 5 14.5 102.07   -6 LegendNANA
10:00 Legend Double Dagger -3.9 -4.0 99   0 12.9 102.08     Snow
11:00 Legend Double Dagger -3.7 -3.8 99 29 8 9.7 102.08   -7 Fog
12:00 Legend Double Dagger -3.6 -3.7 99 33 8 14.5 102.04   -7 LegendNANA
13:00 Legend Double Dagger -3.4 -3.5 99 35 8 14.5 102.04   -7 LegendNANA
14:00 Legend Double Dagger -3.1 -3.1 100 31 9 12.9 102.00   -7 LegendNANA
15:00 Legend Double Dagger -3.1 -3.1 100 36 11 16.1 101.97   -7 LegendNANA
16:00 Legend Double Dagger -3.1 -3.1 100 36 5 16.1 101.94   -5 LegendNANA
17:00 Legend Double Dagger -3.3 -3.4 99 36 13 14.5 101.90   -8 LegendNANA
18:00 Legend Double Dagger -3.4 -3.5 99 35 15 16.1 101.85   -9 LegendNANA
19:00 Legend Double Dagger -3.5 -3.6 100 35 15 16.1 101.78   -9 LegendNANA
20:00 Legend Double Dagger -3.6 -3.7 99 34 13 16.1 101.72   -8 LegendNANA
21:00 Legend Double Dagger -3.5 -3.6 99 33 17 16.1 101.67   -9 LegendNANA
22:00 Legend Double Dagger -3.5 -3.6 99 33 18 16.1 101.63   -9 LegendNANA
23:00 Legend Double Dagger -3.5 -3.6 99 32 18 16.1 101.58   -9 LegendNANA

Notes on Data Quality.

Legend

  • E = Estimated
  • M = Missing
  • NA = Not Available
  • ‡ = Partner data that is not subject to review by the National Climate Archives
Date modified: